Location: Capannuccia
(43.7000°N, 11.3000°E)
Time: 10:41:46
(UTC+00:00)

STARLINK-2695 - Pass Details

Date: 30 July 2021
Orbit: 546 x 548 km, 53.1° (Epoch: 23 September)

Event Time Altitude Azimuth Distance (km) Brightness Sun altitude
Rises 19:59:00 0° 301° (WNW) 2,723 9.0 -12.7°
Reaches altitude 10° 20:01:19 10° 294° (WNW) 1,825 7.5 -13.0°
Maximum altitude 20:05:15 43° 223° (SW) 778 4.4 -13.5°
Enters shadow 20:07:44 20° 161° (SSE) 1,301 5.0 -13.8°
